Location: Avon Lake
(41.5219°N, 93.5010°W)
Time: 09:38:19
(UTC+00:00)

ISS - Visible Passes

Search period start: 04 March 2024 00:00
Search period end: 14 March 2024 00:00
Orbit: 414 x 422 km, 51.6° (Epoch: 04 March)

Date Brightness Start Highest point End Pass type
(mag) Time Alt. Az. Time Alt. Az. Time Alt. Az.
04 Mar -2.7 11:21:27 19° NW 11:23:31 42° NNE 11:26:45 10° ESE visible
05 Mar -2.0 10:35:32 29° NNE 10:35:32 29° NNE 10:38:24 10° E visible
05 Mar -3.2 12:09:01 10° WNW 12:12:14 43° SW 12:15:28 10° SSE visible
06 Mar -0.2 09:49:42 11° ENE 09:49:42 11° ENE 09:49:55 10° ENE visible
06 Mar -3.9 11:22:39 29° WNW 11:24:14 77° SW 11:27:36 10° SE visible
07 Mar -2.7 10:36:56 46° E 10:36:56 46° E 10:39:30 10° ESE visible
07 Mar -1.8 12:10:29 10° W 12:12:35 16° SW 12:14:40 10° S visible
08 Mar -2.7 11:24:19 26° SW 11:24:37 26° SW 11:27:29 10° SSE visible
09 Mar -1.4 10:38:55 17° SSE 10:38:55 17° SSE 10:39:49 10° SSE visible
12 Mar -1.4 01:40:38 10° S 01:41:03 12° S 01:41:03 12° S visible
13 Mar -1.5 00:54:32 10° SE 00:54:55 10° SE 00:55:17 10° ESE visible
13 Mar -1.4 02:27:49 10° SW 02:28:49 18° SW 02:28:49 18° SW visible
